RH
47 48 47 44 38 38 43 42 43 42 38 35 39 41 41 41 39 40 35 28 22 18 17 18 18 19 21 23 22 19 19 18 18 19 19 21 22 19 17 22 20 21 23 22 26 28 28 27 25
43 50 49 43 37 40 43 44 44 42 36 35 36 37 38 40 39 38 31 29 25 18 17 18 18 21 22 23 21 19 19 19 20 20 21 24 22 19 17 20 18 20 26 23 25 25 25 25 25
47 50 45 44 43 41 42 41 42 41 35 32 31 33 35 37 37 33 25 23 19 17 17 17 19 21 22 22 20 19 20 20 21 22 23 24 22 19 19 20 17 17 31 21 23 23 23 25 25
43 46 47 46 45 41 44 42 40 40 39 36 30 30 31 33 32 30 24 19 17 15 16 17 19 21 20 21 21 20 20 20 21 23 24 23 21 16 19 19 17 17 17 17 18 19 21 24 29
39 41 45 47 45 41 43 43 41 40 37 32 29 26 26 27 28 25 25 17 15 16 16 16 18 19 19 21 22 22 20 19 22 24 24 23 20 14 20 21 20 20 20 21 22 23 24 25 29
37 40 45 46 42 43 41 43 42 41 39 34 30 25 24 26 27 28 26 21 16 15 15 15 17 18 19 21 23 22 19 21 23 24 23 22 17 15 18 23 23 22 21 21 23 24 26 29 33
28 36 41 41 43 42 41 42 44 40 39 34 30 26 23 25 26 26 25 24 16 16 14 14 16 18 19 22 23 20 19 22 24 22 21 17 15 17 19 20 25 25 25 25 25 25 27 32 35
25 39 37 38 43 42 38 40 39 38 35 35 30 25 23 21 23 24 23 21 16 15 14 13 16 17 20 22 22 19 18 21 23 22 20 17 18 20 22 23 22 25 25 26 27 28 29 31 30
29 40 35 43 44 41 36 35 35 31 34 33 29 27 25 20 21 21 21 18 15 13 13 12 15 17 19 21 21 18 18 21 24 25 23 22 22 21 22 24 23 24 26 26 26 27 27 29 26
30 41 37 40 40 35 28 29 28 27 31 32 31 25 23 20 20 20 18 17 14 12 12 12 14 16 18 20 20 16 17 21 26 30 31 31 31 29 28 27 26 26 26 26 26 27 28 27 25
30 38 35 37 35 31 25 25 26 28 32 30 28 28 23 22 19 19 16 14 12 11 12 12 13 15 16 18 17 16 17 21 26 33 36 36 37 34 34 32 30 30 30 31 30 31 31 31 29
29 37 33 35 29 28 23 26 25 26 31 30 29 27 27 20 19 17 13 12 11 10 11 12 12 12 14 15 15 16 18 20 25 33 37 39 42 40 36 35 34 33 34 34 35 36 36 34 32
28 32 31 29 27 26 25 24 28 29 32 33 32 29 30 22 21 18 15 14 15 13 11 11 11 11 13 14 14 17 18 20 24 31 35 37 40 42 42 39 37 38 34 36 38 38 39 38 37
24 26 27 25 24 24 25 28 26 32 31 31 35 31 32 26 25 26 24 23 20 16 13 11 11 12 12 13 15 17 17 24 27 34 39 43 45 47 49 49 44 41 42 40 41 42 45 44 42
21 24 23 22 21 22 24 24 26 31 34 35 40 39 35 33 31 29 30 27 23 19 18 17 16 14 14 15 17 22 27 33 34 35 41 45 47 50 51 53 54 49 45 46 47 48 50 50 51
21 23 22 22 21 25 25 24 24 29 30 32 37 41 40 36 34 33 33 29 27 27 25 25 23 23 22 23 27 30 31 34 36 36 38 42 48 51 54 57 57 59 54 47 50 53 55 53 54
20 21 23 22 23 26 25 24 20 24 27 28 30 36 39 41 38 37 34 31 30 27 26 28 28 29 31 32 33 33 34 35 36 36 37 38 41 47 53 58 62 67 67 59 53 53 58 60 61
15 21 22 22 23 23 23 19 19 22 25 26 31 34 37 41 42 41 37 36 34 31 33 33 33 34 34 35 34 35 38 40 41 39 38 38 38 40 46 54 63 67 68 69 62 64 65 80 81
12 15 22 22 22 22 20 19 18 19 24 28 33 35 37 40 43 44 40 42 40 39 38 36 36 37 39 41 42 42 41 43 44 46 46 43 40 40 41 46 54 61 66 67 69 72 80 90 92
13 13 13 21 22 22 21 20 24 25 25 28 34 39 41 41 46 47 46 45 46 45 43 43 44 45 45 47 46 48 49 49 48 47 47 46 47 49 46 44 46 56 61 68 74 85 89 88 91
16 13 12 12 20 22 22 21 25 26 29 31 33 37 39 41 41 46 46 46 47 46 47 47 48 50 51 52 52 53 55 56 60 60 57 58 60 60 58 53 52 56 63 66 69 82 93 92 90
16 15 12 10 12 17 22 20 23 29 30 35 38 38 39 39 36 40 43 44 44 46 45 46 46 50 49 49 49 51 49 50 52 55 57 58 60 62 65 65 63 62 63 68 74 79 89 92 92
14 17 15 14 14 15 16 17 31 28 29 34 38 40 40 41 35 34 37 39 41 43 43 43 45 45 47 48 50 47 47 47 47 49 50 54 57 62 68 72 73 70 73 79 74 87 91 98 96
17 19 19 19 18 18 18 16 36 42 44 40 37 36 38 39 36 36 35 35 37 39 40 43 42 42 44 46 47 47 44 45 45 48 49 52 57 59 64 70 78 81 75 83 92 90 92 98 98
18 19 21 22 21 21 25 30 48 49 46 43 42 40 37 37 40 41 39 37 34 35 35 34 38 43 44 44 44 43 43 44 45 49 49 51 55 63 68 68 68 83 84 83 91 94 93 98 98
18 19 19 23 22 21 30 41 60 54 51 52 49 44 45 46 46 45 43 43 39 37 36 37 38 41 43 46 44 44 47 47 48 50 52 57 61 67 65 68 64 74 86 93 97 99 96 97 90
17 18 19 23 26 24 43 51 52 56 56 56 54 52 54 52 51 52 51 48 47 42 40 39 39 43 46 46 47 49 51 49 50 54 57 59 59 60 58 56 61 75 89 94 93 94 93 90 98
18 19 21 21 27 28 45 48 49 51 54 54 53 54 54 54 54 54 52 49 48 48 49 49 49 49 49 50 51 54 53 52 55 61 60 56 53 48 50 58 65 73 81 90 97 93 92 90 94
20 19 23 24 25 24 38 43 48 53 56 58 61 62 62 60 61 59 56 50 49 48 49 51 50 52 50 50 52 50 51 53 59 58 53 51 51 56 62 66 69 71 78 82 80 84 88 85 86
23 24 25 23 31 31 30 44 51 51 56 61 63 64 66 66 64 61 59 56 54 52 52 51 50 49 51 50 51 47 50 53 56 59 60 60 63 65 65 67 68 74 83 86 71 85 83 85 82